Regional Weather Roundup
Issued by NWS

Home | Current Version | Previous Version | Text Only | Print | Product List | Glossary On
Versions: 1 2 3 4 5 6 7 8 9 10 11 12 13 14 15 16 17 18 19 20 21 22 23 24 25 26 27 28 29 30 31 32 33 34 35 36 37 38 39 40 41 42 43 44 45 46 47 48 49 50
000
ASUS43 KMKX 220400
RWRWI

WISCONSIN REGIONAL WEATHER ROUNDUP
NATIONAL WEATHER SERVICE MILWAUKEE/SULLIVAN WI
1100 PM CDT MON MAY 21 2018

NOTE: "FAIR" INDICATES FEW OR NO CLOUDS BELOW 12,000 FEET WITH NO
SIGNIFICANT WEATHER AND/OR OBSTRUCTIONS TO VISIBILITY.

WIZ001-002-006>008-014>016-023>028-220500-
NORTHWEST WISCONSIN

CITY           SKY/WX    TMP DP  RH WIND       PRES   REMARKS
SUPERIOR ARPT  CLOUDY    48  42  80 CALM      30.01S
ASHLAND        CLOUDY    46  38  73 CALM      30.01F
HAYWARD        CLOUDY    56  50  80 SE3       30.02S
SIREN          CLOUDY    61  51  70 S7        30.02R
CUMBERLAND     CLOUDY    55  50  82 SE6       30.01F
RICE LAKE      CLOUDY    58  53  81 E5        30.03F
CHETEK         CLOUDY    57  53  85 SE6       30.02S
LADYSMITH      CLOUDY    55  53  92 E3        30.05S
EAU CLAIRE     NOT AVBL
MENOMONIE      CLOUDY    58  55  89 E6        30.02S
NEW RICHMOND   CLOUDY    59  51  76 SE5       30.02S
OSCEOLA        CLOUDY    60  53  76 S3        30.04R
$$

WIZ003>005-009-010-017-018-220500-
NORTH CENTRAL WISCONSIN

CITY           SKY/WX    TMP DP  RH WIND       PRES   REMARKS
MANITOWISH WTR CLOUDY    55  50  83 S3        30.04S
ARBOR VITAE    CLOUDY    57  50  79 S9        30.05R
WOODRUFF       CLOUDY    57  50  79 S9        30.05R
RHINELANDER    CLOUDY    53  51  93 SE3       30.05F
EAGLE RIVER    CLOUDY    53  44  73 S5        30.05S
LAND O LAKES   CLOUDY    56  46  69 S5        30.06S
PHILLIPS       CLOUDY    54  52  94 SE7       30.04S
TOMAHAWK       CLOUDY    51  49  92 SE3       30.05F
MEDFORD        CLOUDY    51  50  97 E5        30.03F FOG
MERRILL        CLOUDY    52  51  99 SE5       30.06S
$$

WIZ029-030-035-036-043>047-220500-
CENTRAL WISCONSIN

CITY           SKY/WX    TMP DP  RH WIND       PRES   REMARKS
WAUSAU         CLOUDY    51  50  96 E6        30.03F
MOSINEE        CLOUDY    50  50 100 E6        30.06S FOG
MARSHFIELD     CLOUDY    52  52 100 E7        30.02F FOG
STEVENS POINT  LGT RAIN  50  50 100 E6        30.04F
WAUPACA        CLOUDY    54  52  94 E6        30.05S
WAUTOMA        CLOUDY    52  50  93 E7        30.04S
WISC RAPIDS    CLOUDY    53  51  93 E8        30.04S
CAMP DOUGLAS   CLOUDY    54  54 100 E7        30.02S
$$

WIZ011>013-019>022-031-037>040-048>050-220500-
NORTHEAST WISCONSIN

CITY           SKY/WX    TMP DP  RH WIND       PRES   REMARKS
ANTIGO         CLOUDY    49  48  95 E5        30.06S
SHAWANO        CLOUDY    53  50  89 CALM      30.06S
OCONTO         CLOUDY    50  49  93 CALM      30.06S
STURGEON BAY   CLOUDY    49  47  93 E3        30.07S
GREEN BAY      CLOUDY    51  48  89 E6        30.05F
MANITOWOC      LGT RAIN  48  48 100 E6        30.05F FOG
APPLETON       CLOUDY    52  48  87 E6        30.03S
CLINTONVILLE   CLOUDY    51  48  88 E3        30.06S
OSHKOSH        CLOUDY    51  49  92 E9        30.03S
$$

WIZ032>034-041-042-053>061-220500-
SOUTHWEST WISCONSIN

CITY           SKY/WX    TMP DP  RH WIND       PRES   REMARKS
LA CROSSE      LGT RAIN  59  57  93 NW3       30.00S FOG
SPARTA         CLOUDY    55  54  97 E6        30.02S
VIROQUA        CLOUDY    56  56 100 E3        30.01R
BOSCOBEL       CLOUDY    59  58  96 CALM      30.00S FOG
PRAIRIE DU CHI CLOUDY    59  57  94 CALM      30.00S FOG
PLATTEVILLE    CLOUDY    60  60 100 CALM      30.00S
$$

WIZ056-057-062-063-064-067-068-220500-
SOUTH CENTRAL WISCONSIN

CITY           SKY/WX    TMP DP  RH WIND       PRES   REMARKS
REEDSBURG      CLOUDY    53  53 100 NE7       30.01R FOG
BARABOO/DELLS  CLOUDY    53  51  95 NE6       30.02S FOG
LONE ROCK      NOT AVBL
MINERAL POINT  CLOUDY    59  59 100 E3        30.00R FOG
MADISON        CLOUDY    52  52 100 E6        30.01R FOG
MIDDLETON      CLOUDY    55  55 100 E5        30.01S
WATERTOWN      CLOUDY    50  50 100 E7        30.01F FOG
MONROE         FOG       55  55 100 NE6       29.99S VSB 1/4
JANESVILLE     CLOUDY    55  55 100 NE7       30.00S
$$

WIZ051-052-058>065-066-070>072-220500-
SOUTHEAST WISCONSIN

CITY           SKY/WX    TMP DP  RH WIND       PRES   REMARKS
MILWAUKEE      DRZL/FOG  48  47  96 N5        30.02S VSB 1/4
WAUKESHA       FOG       45  45 100 NE3       30.03S VSB 1
MILWAUKEE/TIMM FOG       46  45  93 NE5       30.03F VSB 1
RACINE         FOG       47  47 100 N5        30.03S VSB 1/2
BURLINGTON     CLOUDY    49  49  97 NE5       30.01F FOG
KENOSHA        FOG       49  48  97 N3        30.01S VSB 1
FOND DU LAC    CLOUDY    50  48  93 E9        30.03F
SHEBOYGAN      CLOUDY    48  47  96 NE7       30.04F FOG
WEST BEND      CLOUDY    48  48 100 E6        30.03F FOG
JUNEAU         CLOUDY    49  49  99 E6        30.03S FOG
$$

LSZ147-162-220500-
LAKE SUPERIOR

STATION/POSITION TIME  TEMP    WIND        PRES    WAVE
                       AIR SEA DIR/SP/G            HT/PER
                 (UTC) (F)     (DEG/KT/KT) (MB)    (FT/S)
W MID LAKE BUOY  0250   40 36  260/  2/  8 1016.3F   0
DEVILS ISLAND    0300   48      10/  5/  6 1016.6R
SAXON HARBOR     0340   47     190/  1/  3 1015.6F
$$

LMZ867-665-643>646-220500-
LAKE MICHIGAN

STATION/POSITION TIME  TEMP    WIND        PRES    WAVE
                       AIR SEA DIR/SP/G            HT/PER
                 (UTC) (F)     (DEG/KT/KT) (MB)    (FT/S)
NORTHPORT PIER   0340   45                 1017.9F
KEWAUNEE LAKESHO 0330   47      50/  3/  5 1017.3F
SHEBOYGAN LAKESH 0300   45      10/  9/ 11 1017.7F
PORT WASHINGTON  0330   49      30/  4/  7 1017.9S
ATWATER BUOY     0307   45 46   10/ 10/ 10 1016.7
MILWAUKEE LAKESH 0350   46      20/  7/  9   N/A
KENOSHA   LAKESH 0300   48                 1016.3
$$

TC  - TEMPERATURE IN CELSIUS
VSB - VISIBILITY IN STATUTE MILES
WCI - WIND CHILL INDEX
HX  - HEAT INDEX




USA.gov is the U.S. government's official web portal to all federal, state and local government web resources and services.